Index of /20260508/WXO-DD/model_rdps/10km/06/052
Name Last modified Size Description
Parent Directory -
20260508T06Z_MSC_RDPS_AbsoluteVorticity_IsbL-0250_RLatLon0.09_PT052H.grib2 2026-05-08 08:56 602K
20260508T06Z_MSC_RDPS_AbsoluteVorticity_IsbL-0500_RLatLon0.09_PT052H.grib2 2026-05-08 08:56 567K
20260508T06Z_MSC_RDPS_AbsoluteVorticity_IsbL-0700_RLatLon0.09_PT052H.grib2 2026-05-08 08:56 619K
20260508T06Z_MSC_RDPS_AbsoluteVorticity_IsbL-0850_RLatLon0.09_PT052H.grib2 2026-05-08 08:56 787K
20260508T06Z_MSC_RDPS_AirTemp_AGL-120m_RLatLon0.09_PT052H.grib2 2026-05-08 08:56 379K
20260508T06Z_MSC_RDPS_AirTemp_AGL-2m_RLatLon0.09_PT052H.grib2 2026-05-08 08:56 626K
20260508T06Z_MSC_RDPS_AirTemp_AGL-40m_RLatLon0.09_PT052H.grib2 2026-05-08 08:56 394K
20260508T06Z_MSC_RDPS_AirTemp_AGL-80m_RLatLon0.09_PT052H.grib2 2026-05-08 08:56 385K
20260508T06Z_MSC_RDPS_AirTemp_IsbL-0001_RLatLon0.09_PT052H.grib2 2026-05-08 08:56 232K
20260508T06Z_MSC_RDPS_AirTemp_IsbL-0005_RLatLon0.09_PT052H.grib2 2026-05-08 08:56 379K
20260508T06Z_MSC_RDPS_AirTemp_IsbL-0010_RLatLon0.09_PT052H.grib2 2026-05-08 08:56 390K
20260508T06Z_MSC_RDPS_AirTemp_IsbL-0020_RLatLon0.09_PT052H.grib2 2026-05-08 08:56 319K
20260508T06Z_MSC_RDPS_AirTemp_IsbL-0030_RLatLon0.09_PT052H.grib2 2026-05-08 08:56 334K
20260508T06Z_MSC_RDPS_AirTemp_IsbL-0050_RLatLon0.09_PT052H.grib2 2026-05-08 08:56 310K
20260508T06Z_MSC_RDPS_AirTemp_IsbL-0100_RLatLon0.09_PT052H.grib2 2026-05-08 08:56 430K
20260508T06Z_MSC_RDPS_AirTemp_IsbL-0150_RLatLon0.09_PT052H.grib2 2026-05-08 08:56 409K
20260508T06Z_MSC_RDPS_AirTemp_IsbL-0175_RLatLon0.09_PT052H.grib2 2026-05-08 08:56 405K
20260508T06Z_MSC_RDPS_AirTemp_IsbL-0200_RLatLon0.09_PT052H.grib2 2026-05-08 08:56 407K
20260508T06Z_MSC_RDPS_AirTemp_IsbL-0225_RLatLon0.09_PT052H.grib2 2026-05-08 08:56 408K
20260508T06Z_MSC_RDPS_AirTemp_IsbL-0250_RLatLon0.09_PT052H.grib2 2026-05-08 08:56 421K
20260508T06Z_MSC_RDPS_AirTemp_IsbL-0275_RLatLon0.09_PT052H.grib2 2026-05-08 08:56 402K
20260508T06Z_MSC_RDPS_AirTemp_IsbL-0300_RLatLon0.09_PT052H.grib2 2026-05-08 08:56 433K
20260508T06Z_MSC_RDPS_AirTemp_IsbL-0350_RLatLon0.09_PT052H.grib2 2026-05-08 08:56 419K
20260508T06Z_MSC_RDPS_AirTemp_IsbL-0400_RLatLon0.09_PT052H.grib2 2026-05-08 08:56 424K
20260508T06Z_MSC_RDPS_AirTemp_IsbL-0450_RLatLon0.09_PT052H.grib2 2026-05-08 08:56 433K
20260508T06Z_MSC_RDPS_AirTemp_IsbL-0500_RLatLon0.09_PT052H.grib2 2026-05-08 08:56 443K
20260508T06Z_MSC_RDPS_AirTemp_IsbL-0550_RLatLon0.09_PT052H.grib2 2026-05-08 08:56 461K
20260508T06Z_MSC_RDPS_AirTemp_IsbL-0600_RLatLon0.09_PT052H.grib2 2026-05-08 08:56 477K
20260508T06Z_MSC_RDPS_AirTemp_IsbL-0650_RLatLon0.09_PT052H.grib2 2026-05-08 08:56 493K
20260508T06Z_MSC_RDPS_AirTemp_IsbL-0700_RLatLon0.09_PT052H.grib2 2026-05-08 08:56 520K
20260508T06Z_MSC_RDPS_AirTemp_IsbL-0750_RLatLon0.09_PT052H.grib2 2026-05-08 08:56 564K
20260508T06Z_MSC_RDPS_AirTemp_IsbL-0800_RLatLon0.09_PT052H.grib2 2026-05-08 08:56 583K
20260508T06Z_MSC_RDPS_AirTemp_IsbL-0850_RLatLon0.09_PT052H.grib2 2026-05-08 08:56 639K
20260508T06Z_MSC_RDPS_AirTemp_IsbL-0875_RLatLon0.09_PT052H.grib2 2026-05-08 08:56 657K
20260508T06Z_MSC_RDPS_AirTemp_IsbL-0900_RLatLon0.09_PT052H.grib2 2026-05-08 08:56 530K
20260508T06Z_MSC_RDPS_AirTemp_IsbL-0925_RLatLon0.09_PT052H.grib2 2026-05-08 08:56 529K
20260508T06Z_MSC_RDPS_AirTemp_IsbL-0950_RLatLon0.09_PT052H.grib2 2026-05-08 08:56 528K
20260508T06Z_MSC_RDPS_AirTemp_IsbL-0970_RLatLon0.09_PT052H.grib2 2026-05-08 08:56 524K
20260508T06Z_MSC_RDPS_AirTemp_IsbL-0985_RLatLon0.09_PT052H.grib2 2026-05-08 08:56 508K
20260508T06Z_MSC_RDPS_AirTemp_IsbL-1000_RLatLon0.09_PT052H.grib2 2026-05-08 08:56 494K
20260508T06Z_MSC_RDPS_AirTemp_IsbL-1015_RLatLon0.09_PT052H.grib2 2026-05-08 08:56 497K
20260508T06Z_MSC_RDPS_Albedo_Sfc_RLatLon0.09_PT052H.grib2 2026-05-08 08:56 156K
20260508T06Z_MSC_RDPS_CAPE_Sfc_RLatLon0.09_PT052H.grib2 2026-05-08 08:56 1.7M
20260508T06Z_MSC_RDPS_CIN_Sfc_RLatLon0.09_PT052H.grib2 2026-05-08 08:56 1.2M
20260508T06Z_MSC_RDPS_CloudWater_EAtm_RLatLon0.09_PT052H.grib2 2026-05-08 08:56 226K
20260508T06Z_MSC_RDPS_ConvectivePrecip-Accum_Sfc_RLatLon0.09_PT052H.grib2 2026-05-08 08:56 1.2M
20260508T06Z_MSC_RDPS_DewPointDepression_AGL-2m_RLatLon0.09_PT052H.grib2 2026-05-08 08:56 396K
20260508T06Z_MSC_RDPS_DewPointDepression_IsbL-0001_RLatLon0.09_PT052H.grib2 2026-05-08 08:56 193
20260508T06Z_MSC_RDPS_DewPointDepression_IsbL-0005_RLatLon0.09_PT052H.grib2 2026-05-08 08:56 193
20260508T06Z_MSC_RDPS_DewPointDepression_IsbL-0010_RLatLon0.09_PT052H.grib2 2026-05-08 08:56 193
20260508T06Z_MSC_RDPS_DewPointDepression_IsbL-0020_RLatLon0.09_PT052H.grib2 2026-05-08 08:56 193
20260508T06Z_MSC_RDPS_DewPointDepression_IsbL-0030_RLatLon0.09_PT052H.grib2 2026-05-08 08:56 826
20260508T06Z_MSC_RDPS_DewPointDepression_IsbL-0050_RLatLon0.09_PT052H.grib2 2026-05-08 08:56 107K
20260508T06Z_MSC_RDPS_DewPointDepression_IsbL-0100_RLatLon0.09_PT052H.grib2 2026-05-08 08:56 113K
20260508T06Z_MSC_RDPS_DewPointDepression_IsbL-0150_RLatLon0.09_PT052H.grib2 2026-05-08 08:56 144K
20260508T06Z_MSC_RDPS_DewPointDepression_IsbL-0175_RLatLon0.09_PT052H.grib2 2026-05-08 08:56 168K
20260508T06Z_MSC_RDPS_DewPointDepression_IsbL-0200_RLatLon0.09_PT052H.grib2 2026-05-08 08:56 213K
20260508T06Z_MSC_RDPS_DewPointDepression_IsbL-0225_RLatLon0.09_PT052H.grib2 2026-05-08 08:56 260K
20260508T06Z_MSC_RDPS_DewPointDepression_IsbL-0250_RLatLon0.09_PT052H.grib2 2026-05-08 08:56 303K
20260508T06Z_MSC_RDPS_DewPointDepression_IsbL-0275_RLatLon0.09_PT052H.grib2 2026-05-08 08:56 310K
20260508T06Z_MSC_RDPS_DewPointDepression_IsbL-0300_RLatLon0.09_PT052H.grib2 2026-05-08 08:56 324K
20260508T06Z_MSC_RDPS_DewPointDepression_IsbL-0350_RLatLon0.09_PT052H.grib2 2026-05-08 08:56 326K
20260508T06Z_MSC_RDPS_DewPointDepression_IsbL-0400_RLatLon0.09_PT052H.grib2 2026-05-08 08:56 334K
20260508T06Z_MSC_RDPS_DewPointDepression_IsbL-0450_RLatLon0.09_PT052H.grib2 2026-05-08 08:56 341K
20260508T06Z_MSC_RDPS_DewPointDepression_IsbL-0500_RLatLon0.09_PT052H.grib2 2026-05-08 08:56 347K
20260508T06Z_MSC_RDPS_DewPointDepression_IsbL-0550_RLatLon0.09_PT052H.grib2 2026-05-08 08:56 357K
20260508T06Z_MSC_RDPS_DewPointDepression_IsbL-0600_RLatLon0.09_PT052H.grib2 2026-05-08 08:56 367K
20260508T06Z_MSC_RDPS_DewPointDepression_IsbL-0650_RLatLon0.09_PT052H.grib2 2026-05-08 08:56 378K
20260508T06Z_MSC_RDPS_DewPointDepression_IsbL-0700_RLatLon0.09_PT052H.grib2 2026-05-08 08:56 389K
20260508T06Z_MSC_RDPS_DewPointDepression_IsbL-0750_RLatLon0.09_PT052H.grib2 2026-05-08 08:56 406K
20260508T06Z_MSC_RDPS_DewPointDepression_IsbL-0800_RLatLon0.09_PT052H.grib2 2026-05-08 08:56 447K
20260508T06Z_MSC_RDPS_DewPointDepression_IsbL-0850_RLatLon0.09_PT052H.grib2 2026-05-08 08:56 476K
20260508T06Z_MSC_RDPS_DewPointDepression_IsbL-0875_RLatLon0.09_PT052H.grib2 2026-05-08 08:56 471K
20260508T06Z_MSC_RDPS_DewPointDepression_IsbL-0900_RLatLon0.09_PT052H.grib2 2026-05-08 08:56 456K
20260508T06Z_MSC_RDPS_DewPointDepression_IsbL-0925_RLatLon0.09_PT052H.grib2 2026-05-08 08:56 443K
20260508T06Z_MSC_RDPS_DewPointDepression_IsbL-0950_RLatLon0.09_PT052H.grib2 2026-05-08 08:56 436K
20260508T06Z_MSC_RDPS_DewPointDepression_IsbL-0970_RLatLon0.09_PT052H.grib2 2026-05-08 08:56 431K
20260508T06Z_MSC_RDPS_DewPointDepression_IsbL-0985_RLatLon0.09_PT052H.grib2 2026-05-08 08:56 425K
20260508T06Z_MSC_RDPS_DewPointDepression_IsbL-1000_RLatLon0.09_PT052H.grib2 2026-05-08 08:56 420K
20260508T06Z_MSC_RDPS_DewPointDepression_IsbL-1015_RLatLon0.09_PT052H.grib2 2026-05-08 08:56 412K
20260508T06Z_MSC_RDPS_DewPoint_AGL-2m_RLatLon0.09_PT052H.grib2 2026-05-08 08:56 391K
20260508T06Z_MSC_RDPS_DownwardLongwaveRadiationFlux-Accum_Sfc_RLatLon0.09_PT052H.grib2 2026-05-08 08:56 381K
20260508T06Z_MSC_RDPS_DownwardShortwaveRadiationFlux-Accum_NTAtm_RLatLon0.09_PT052H.grib2 2026-05-08 08:56 118K
20260508T06Z_MSC_RDPS_DownwardShortwaveRadiationFlux-Accum_Sfc_RLatLon0.09_PT052H.grib2 2026-05-08 08:56 575K
20260508T06Z_MSC_RDPS_FreezingRain-Accum1h_Sfc_RLatLon0.09_PT052H.grib2 2026-05-08 08:56 56K
20260508T06Z_MSC_RDPS_FreezingRain-Accum_Sfc_RLatLon0.09_PT052H.grib2 2026-05-08 08:56 149K
20260508T06Z_MSC_RDPS_GeopotentialHeight_IsbL-0001_RLatLon0.09_PT052H.grib2 2026-05-08 08:56 243K
20260508T06Z_MSC_RDPS_GeopotentialHeight_IsbL-0005_RLatLon0.09_PT052H.grib2 2026-05-08 08:56 307K
20260508T06Z_MSC_RDPS_GeopotentialHeight_IsbL-0010_RLatLon0.09_PT052H.grib2 2026-05-08 08:56 309K
20260508T06Z_MSC_RDPS_GeopotentialHeight_IsbL-0020_RLatLon0.09_PT052H.grib2 2026-05-08 08:56 309K
20260508T06Z_MSC_RDPS_GeopotentialHeight_IsbL-0030_RLatLon0.09_PT052H.grib2 2026-05-08 08:56 309K
20260508T06Z_MSC_RDPS_GeopotentialHeight_IsbL-0050_RLatLon0.09_PT052H.grib2 2026-05-08 08:56 310K
20260508T06Z_MSC_RDPS_GeopotentialHeight_IsbL-0100_RLatLon0.09_PT052H.grib2 2026-05-08 08:56 286K
20260508T06Z_MSC_RDPS_GeopotentialHeight_IsbL-0150_RLatLon0.09_PT052H.grib2 2026-05-08 08:56 227K
20260508T06Z_MSC_RDPS_GeopotentialHeight_IsbL-0175_RLatLon0.09_PT052H.grib2 2026-05-08 08:56 229K
20260508T06Z_MSC_RDPS_GeopotentialHeight_IsbL-0200_RLatLon0.09_PT052H.grib2 2026-05-08 08:56 232K
20260508T06Z_MSC_RDPS_GeopotentialHeight_IsbL-0225_RLatLon0.09_PT052H.grib2 2026-05-08 08:56 233K
20260508T06Z_MSC_RDPS_GeopotentialHeight_IsbL-0250_RLatLon0.09_PT052H.grib2 2026-05-08 08:56 235K
20260508T06Z_MSC_RDPS_GeopotentialHeight_IsbL-0275_RLatLon0.09_PT052H.grib2 2026-05-08 08:56 235K
20260508T06Z_MSC_RDPS_GeopotentialHeight_IsbL-0300_RLatLon0.09_PT052H.grib2 2026-05-08 08:56 235K
20260508T06Z_MSC_RDPS_GeopotentialHeight_IsbL-0350_RLatLon0.09_PT052H.grib2 2026-05-08 08:56 231K
20260508T06Z_MSC_RDPS_GeopotentialHeight_IsbL-0400_RLatLon0.09_PT052H.grib2 2026-05-08 08:56 227K
20260508T06Z_MSC_RDPS_GeopotentialHeight_IsbL-0450_RLatLon0.09_PT052H.grib2 2026-05-08 08:56 296K
20260508T06Z_MSC_RDPS_GeopotentialHeight_IsbL-0500_RLatLon0.09_PT052H.grib2 2026-05-08 08:56 290K
20260508T06Z_MSC_RDPS_GeopotentialHeight_IsbL-0550_RLatLon0.09_PT052H.grib2 2026-05-08 08:56 286K
20260508T06Z_MSC_RDPS_GeopotentialHeight_IsbL-0600_RLatLon0.09_PT052H.grib2 2026-05-08 08:56 283K
20260508T06Z_MSC_RDPS_GeopotentialHeight_IsbL-0650_RLatLon0.09_PT052H.grib2 2026-05-08 08:56 252K
20260508T06Z_MSC_RDPS_GeopotentialHeight_IsbL-0700_RLatLon0.09_PT052H.grib2 2026-05-08 08:56 252K
20260508T06Z_MSC_RDPS_GeopotentialHeight_IsbL-0750_RLatLon0.09_PT052H.grib2 2026-05-08 08:56 337K
20260508T06Z_MSC_RDPS_GeopotentialHeight_IsbL-0800_RLatLon0.09_PT052H.grib2 2026-05-08 08:56 348K
20260508T06Z_MSC_RDPS_GeopotentialHeight_IsbL-0850_RLatLon0.09_PT052H.grib2 2026-05-08 08:56 359K
20260508T06Z_MSC_RDPS_GeopotentialHeight_IsbL-0875_RLatLon0.09_PT052H.grib2 2026-05-08 08:56 361K
20260508T06Z_MSC_RDPS_GeopotentialHeight_IsbL-0900_RLatLon0.09_PT052H.grib2 2026-05-08 08:56 365K
20260508T06Z_MSC_RDPS_GeopotentialHeight_IsbL-0925_RLatLon0.09_PT052H.grib2 2026-05-08 08:56 368K
20260508T06Z_MSC_RDPS_GeopotentialHeight_IsbL-0950_RLatLon0.09_PT052H.grib2 2026-05-08 08:56 370K
20260508T06Z_MSC_RDPS_GeopotentialHeight_IsbL-0970_RLatLon0.09_PT052H.grib2 2026-05-08 08:56 376K
20260508T06Z_MSC_RDPS_GeopotentialHeight_IsbL-0985_RLatLon0.09_PT052H.grib2 2026-05-08 08:56 385K
20260508T06Z_MSC_RDPS_GeopotentialHeight_IsbL-1000_RLatLon0.09_PT052H.grib2 2026-05-08 08:56 397K
20260508T06Z_MSC_RDPS_GeopotentialHeight_IsbL-1015_RLatLon0.09_PT052H.grib2 2026-05-08 08:56 411K
20260508T06Z_MSC_RDPS_HighLowPressure_MSL_RLatLon0.09_PT052H.json 2026-05-08 08:48 21K
20260508T06Z_MSC_RDPS_Humidex_Sfc_RLatLon0.09_PT052H.grib2 2026-05-08 08:56 2.4M
20260508T06Z_MSC_RDPS_IcePellets-Accum1h_Sfc_RLatLon0.09_PT052H.grib2 2026-05-08 08:56 12K
20260508T06Z_MSC_RDPS_IcePellets-Accum_Sfc_RLatLon0.09_PT052H.grib2 2026-05-08 08:56 24K
20260508T06Z_MSC_RDPS_KIndex_Sfc_RLatLon0.09_PT052H.grib2 2026-05-08 08:56 2.5M
20260508T06Z_MSC_RDPS_LatentHeatNetFlux_Sfc_RLatLon0.09_PT052H.grib2 2026-05-08 08:56 327K
20260508T06Z_MSC_RDPS_LiftedIndex-MU-VT_IsbL-0500_RLatLon0.09_PT052H.grib2 2026-05-08 08:56 2.4M
20260508T06Z_MSC_RDPS_NetLongwaveRadiationFlux-Accum_Sfc_RLatLon0.09_PT052H.grib2 2026-05-08 08:56 560K
20260508T06Z_MSC_RDPS_NetShortwaveRadiationFlux-Accum_Sfc_RLatLon0.09_PT052H.grib2 2026-05-08 08:56 574K
20260508T06Z_MSC_RDPS_PlanetaryBoundaryLayerHeight_Sfc_RLatLon0.09_PT052H.grib2 2026-05-08 08:56 1.1M
20260508T06Z_MSC_RDPS_Precip-Accum1h_Sfc_RLatLon0.09_PT052H.grib2 2026-05-08 08:56 1.3M
20260508T06Z_MSC_RDPS_Precip-Accum_Sfc_RLatLon0.09_PT052H.grib2 2026-05-08 08:56 2.0M
20260508T06Z_MSC_RDPS_PrecipRate_Sfc_RLatLon0.09_PT052H.grib2 2026-05-08 08:56 186K
20260508T06Z_MSC_RDPS_PrecipType-Instant_Sfc_RLatLon0.09_PT052H.grib2 2026-05-08 08:56 611K
20260508T06Z_MSC_RDPS_Pressure-Trend3h_Sfc_RLatLon0.09_PT052H.grib2 2026-05-08 08:56 1.2M
20260508T06Z_MSC_RDPS_Pressure_MSL_RLatLon0.09_PT052H.grib2 2026-05-08 08:56 325K
20260508T06Z_MSC_RDPS_Pressure_PVU-1.5_RLatLon0.09_PT052H.grib2 2026-05-08 08:56 2.3M
20260508T06Z_MSC_RDPS_Pressure_PVU-1_RLatLon0.09_PT052H.grib2 2026-05-08 08:56 2.4M
20260508T06Z_MSC_RDPS_Pressure_PVU-2_RLatLon0.09_PT052H.grib2 2026-05-08 08:56 2.4M
20260508T06Z_MSC_RDPS_Pressure_Sfc_RLatLon0.09_PT052H.grib2 2026-05-08 08:56 498K
20260508T06Z_MSC_RDPS_RadiativeTemp_Sfc_RLatLon0.09_PT052H.grib2 2026-05-08 08:56 389K
20260508T06Z_MSC_RDPS_Rain-Accum1h_Sfc_RLatLon0.09_PT052H.grib2 2026-05-08 08:56 672K
20260508T06Z_MSC_RDPS_Rain-Accum_Sfc_RLatLon0.09_PT052H.grib2 2026-05-08 08:56 1.7M
20260508T06Z_MSC_RDPS_RelativeHumidity_AGL-2m_RLatLon0.09_PT052H.grib2 2026-05-08 08:56 1.0M
20260508T06Z_MSC_RDPS_RelativeHumidity_IsbL-0010_RLatLon0.09_PT052H.grib2 2026-05-08 08:56 595K
20260508T06Z_MSC_RDPS_RelativeHumidity_IsbL-0020_RLatLon0.09_PT052H.grib2 2026-05-08 08:56 638K
20260508T06Z_MSC_RDPS_RelativeHumidity_IsbL-0030_RLatLon0.09_PT052H.grib2 2026-05-08 08:56 629K
20260508T06Z_MSC_RDPS_RelativeHumidity_IsbL-0050_RLatLon0.09_PT052H.grib2 2026-05-08 08:56 354K
20260508T06Z_MSC_RDPS_RelativeHumidity_IsbL-0100_RLatLon0.09_PT052H.grib2 2026-05-08 08:56 281K
20260508T06Z_MSC_RDPS_RelativeHumidity_IsbL-0150_RLatLon0.09_PT052H.grib2 2026-05-08 08:56 412K
20260508T06Z_MSC_RDPS_RelativeHumidity_IsbL-0175_RLatLon0.09_PT052H.grib2 2026-05-08 08:56 466K
20260508T06Z_MSC_RDPS_RelativeHumidity_IsbL-0200_RLatLon0.09_PT052H.grib2 2026-05-08 08:56 534K
20260508T06Z_MSC_RDPS_RelativeHumidity_IsbL-0225_RLatLon0.09_PT052H.grib2 2026-05-08 08:56 608K
20260508T06Z_MSC_RDPS_RelativeHumidity_IsbL-0250_RLatLon0.09_PT052H.grib2 2026-05-08 08:56 689K
20260508T06Z_MSC_RDPS_RelativeHumidity_IsbL-0275_RLatLon0.09_PT052H.grib2 2026-05-08 08:56 719K
20260508T06Z_MSC_RDPS_RelativeHumidity_IsbL-0300_RLatLon0.09_PT052H.grib2 2026-05-08 08:56 756K
20260508T06Z_MSC_RDPS_RelativeHumidity_IsbL-0350_RLatLon0.09_PT052H.grib2 2026-05-08 08:56 768K
20260508T06Z_MSC_RDPS_RelativeHumidity_IsbL-0400_RLatLon0.09_PT052H.grib2 2026-05-08 08:56 787K
20260508T06Z_MSC_RDPS_RelativeHumidity_IsbL-0450_RLatLon0.09_PT052H.grib2 2026-05-08 08:56 797K
20260508T06Z_MSC_RDPS_RelativeHumidity_IsbL-0500_RLatLon0.09_PT052H.grib2 2026-05-08 08:56 804K
20260508T06Z_MSC_RDPS_RelativeHumidity_IsbL-0550_RLatLon0.09_PT052H.grib2 2026-05-08 08:56 816K
20260508T06Z_MSC_RDPS_RelativeHumidity_IsbL-0600_RLatLon0.09_PT052H.grib2 2026-05-08 08:56 832K
20260508T06Z_MSC_RDPS_RelativeHumidity_IsbL-0650_RLatLon0.09_PT052H.grib2 2026-05-08 08:56 848K
20260508T06Z_MSC_RDPS_RelativeHumidity_IsbL-0700_RLatLon0.09_PT052H.grib2 2026-05-08 08:56 882K
20260508T06Z_MSC_RDPS_RelativeHumidity_IsbL-0750_RLatLon0.09_PT052H.grib2 2026-05-08 08:56 924K
20260508T06Z_MSC_RDPS_RelativeHumidity_IsbL-0800_RLatLon0.09_PT052H.grib2 2026-05-08 08:56 1.0M
20260508T06Z_MSC_RDPS_RelativeHumidity_IsbL-0850_RLatLon0.09_PT052H.grib2 2026-05-08 08:56 1.0M
20260508T06Z_MSC_RDPS_RelativeHumidity_IsbL-0875_RLatLon0.09_PT052H.grib2 2026-05-08 08:56 1.1M
20260508T06Z_MSC_RDPS_RelativeHumidity_IsbL-0900_RLatLon0.09_PT052H.grib2 2026-05-08 08:56 1.1M
20260508T06Z_MSC_RDPS_RelativeHumidity_IsbL-0925_RLatLon0.09_PT052H.grib2 2026-05-08 08:56 1.1M
20260508T06Z_MSC_RDPS_RelativeHumidity_IsbL-0950_RLatLon0.09_PT052H.grib2 2026-05-08 08:56 1.1M
20260508T06Z_MSC_RDPS_RelativeHumidity_IsbL-0970_RLatLon0.09_PT052H.grib2 2026-05-08 08:56 1.0M
20260508T06Z_MSC_RDPS_RelativeHumidity_IsbL-0985_RLatLon0.09_PT052H.grib2 2026-05-08 08:56 1.0M
20260508T06Z_MSC_RDPS_RelativeHumidity_IsbL-1000_RLatLon0.09_PT052H.grib2 2026-05-08 08:56 1.0M
20260508T06Z_MSC_RDPS_RelativeHumidity_IsbL-1015_RLatLon0.09_PT052H.grib2 2026-05-08 08:56 1.0M
20260508T06Z_MSC_RDPS_Runoff-Accum_Sfc_RLatLon0.09_PT052H.grib2 2026-05-08 08:56 37K
20260508T06Z_MSC_RDPS_SWEATIndex_Sfc_RLatLon0.09_PT052H.grib2 2026-05-08 08:56 2.5M
20260508T06Z_MSC_RDPS_SeeingIndex_EAtm_RLatLon0.09_PT052H.grib2 2026-05-08 08:56 1.1M
20260508T06Z_MSC_RDPS_SensibleHeatNetFlux_Sfc_RLatLon0.09_PT052H.grib2 2026-05-08 08:56 220K
20260508T06Z_MSC_RDPS_ShowalterIndex_IsbL-0500_RLatLon0.09_PT052H.grib2 2026-05-08 08:56 2.6M
20260508T06Z_MSC_RDPS_SkyTransparencyIndex_EAtm_RLatLon0.09_PT052H.grib2 2026-05-08 08:56 698K
20260508T06Z_MSC_RDPS_Snow-Accum1h_Sfc_RLatLon0.09_PT052H.grib2 2026-05-08 08:56 336K
20260508T06Z_MSC_RDPS_Snow-Accum_Sfc_RLatLon0.09_PT052H.grib2 2026-05-08 08:56 695K
20260508T06Z_MSC_RDPS_SnowDensity_Sfc_RLatLon0.09_PT052H.grib2 2026-05-08 08:56 170K
20260508T06Z_MSC_RDPS_SnowDepth_Sfc_RLatLon0.09_PT052H.grib2 2026-05-08 08:56 621K
20260508T06Z_MSC_RDPS_SoilTemp_DBS-0to10cm_RLatLon0.09_PT052H.grib2 2026-05-08 08:56 237K
20260508T06Z_MSC_RDPS_SoilTemp_Sfc_RLatLon0.09_PT052H.grib2 2026-05-08 08:56 267K
20260508T06Z_MSC_RDPS_SoilVolumetricIceContent_Sfc_RLatLon0.09_PT052H.grib2 2026-05-08 08:56 143K
20260508T06Z_MSC_RDPS_SoilVolumetricWaterContent_DBS-0to10cm_RLatLon0.09_PT052H.grib2 2026-05-08 08:56 291K
20260508T06Z_MSC_RDPS_SoilVolumetricWaterContent_DBS-0to1cm_RLatLon0.09_PT052H.grib2 2026-05-08 08:56 343K
20260508T06Z_MSC_RDPS_SpecificHumidity_AGL-120m_RLatLon0.09_PT052H.grib2 2026-05-08 08:56 498K
20260508T06Z_MSC_RDPS_SpecificHumidity_AGL-2m_RLatLon0.09_PT052H.grib2 2026-05-08 08:56 667K
20260508T06Z_MSC_RDPS_SpecificHumidity_AGL-40m_RLatLon0.09_PT052H.grib2 2026-05-08 08:56 503K
20260508T06Z_MSC_RDPS_SpecificHumidity_AGL-80m_RLatLon0.09_PT052H.grib2 2026-05-08 08:56 499K
20260508T06Z_MSC_RDPS_SpecificHumidity_IsbL-0001_RLatLon0.09_PT052H.grib2 2026-05-08 08:56 355K
20260508T06Z_MSC_RDPS_SpecificHumidity_IsbL-0005_RLatLon0.09_PT052H.grib2 2026-05-08 08:56 369K
20260508T06Z_MSC_RDPS_SpecificHumidity_IsbL-0010_RLatLon0.09_PT052H.grib2 2026-05-08 08:56 398K
20260508T06Z_MSC_RDPS_SpecificHumidity_IsbL-0020_RLatLon0.09_PT052H.grib2 2026-05-08 08:56 491K
20260508T06Z_MSC_RDPS_SpecificHumidity_IsbL-0030_RLatLon0.09_PT052H.grib2 2026-05-08 08:56 372K
20260508T06Z_MSC_RDPS_SpecificHumidity_IsbL-0050_RLatLon0.09_PT052H.grib2 2026-05-08 08:56 482K
20260508T06Z_MSC_RDPS_SpecificHumidity_IsbL-0100_RLatLon0.09_PT052H.grib2 2026-05-08 08:56 411K
20260508T06Z_MSC_RDPS_SpecificHumidity_IsbL-0150_RLatLon0.09_PT052H.grib2 2026-05-08 08:56 452K
20260508T06Z_MSC_RDPS_SpecificHumidity_IsbL-0175_RLatLon0.09_PT052H.grib2 2026-05-08 08:56 428K
20260508T06Z_MSC_RDPS_SpecificHumidity_IsbL-0200_RLatLon0.09_PT052H.grib2 2026-05-08 08:56 445K
20260508T06Z_MSC_RDPS_SpecificHumidity_IsbL-0225_RLatLon0.09_PT052H.grib2 2026-05-08 08:56 452K
20260508T06Z_MSC_RDPS_SpecificHumidity_IsbL-0250_RLatLon0.09_PT052H.grib2 2026-05-08 08:56 562K
20260508T06Z_MSC_RDPS_SpecificHumidity_IsbL-0275_RLatLon0.09_PT052H.grib2 2026-05-08 08:56 479K
20260508T06Z_MSC_RDPS_SpecificHumidity_IsbL-0300_RLatLon0.09_PT052H.grib2 2026-05-08 08:56 549K
20260508T06Z_MSC_RDPS_SpecificHumidity_IsbL-0350_RLatLon0.09_PT052H.grib2 2026-05-08 08:56 565K
20260508T06Z_MSC_RDPS_SpecificHumidity_IsbL-0400_RLatLon0.09_PT052H.grib2 2026-05-08 08:56 526K
20260508T06Z_MSC_RDPS_SpecificHumidity_IsbL-0450_RLatLon0.09_PT052H.grib2 2026-05-08 08:56 581K
20260508T06Z_MSC_RDPS_SpecificHumidity_IsbL-0500_RLatLon0.09_PT052H.grib2 2026-05-08 08:56 520K
20260508T06Z_MSC_RDPS_SpecificHumidity_IsbL-0550_RLatLon0.09_PT052H.grib2 2026-05-08 08:56 589K
20260508T06Z_MSC_RDPS_SpecificHumidity_IsbL-0600_RLatLon0.09_PT052H.grib2 2026-05-08 08:56 638K
20260508T06Z_MSC_RDPS_SpecificHumidity_IsbL-0650_RLatLon0.09_PT052H.grib2 2026-05-08 08:56 559K
20260508T06Z_MSC_RDPS_SpecificHumidity_IsbL-0700_RLatLon0.09_PT052H.grib2 2026-05-08 08:56 606K
20260508T06Z_MSC_RDPS_SpecificHumidity_IsbL-0750_RLatLon0.09_PT052H.grib2 2026-05-08 08:56 662K
20260508T06Z_MSC_RDPS_SpecificHumidity_IsbL-0800_RLatLon0.09_PT052H.grib2 2026-05-08 08:56 754K
20260508T06Z_MSC_RDPS_SpecificHumidity_IsbL-0850_RLatLon0.09_PT052H.grib2 2026-05-08 08:56 823K
20260508T06Z_MSC_RDPS_SpecificHumidity_IsbL-0875_RLatLon0.09_PT052H.grib2 2026-05-08 08:56 842K
20260508T06Z_MSC_RDPS_SpecificHumidity_IsbL-0900_RLatLon0.09_PT052H.grib2 2026-05-08 08:56 848K
20260508T06Z_MSC_RDPS_SpecificHumidity_IsbL-0925_RLatLon0.09_PT052H.grib2 2026-05-08 08:56 848K
20260508T06Z_MSC_RDPS_SpecificHumidity_IsbL-0950_RLatLon0.09_PT052H.grib2 2026-05-08 08:56 847K
20260508T06Z_MSC_RDPS_SpecificHumidity_IsbL-0970_RLatLon0.09_PT052H.grib2 2026-05-08 08:56 701K
20260508T06Z_MSC_RDPS_SpecificHumidity_IsbL-0985_RLatLon0.09_PT052H.grib2 2026-05-08 08:56 693K
20260508T06Z_MSC_RDPS_SpecificHumidity_IsbL-1000_RLatLon0.09_PT052H.grib2 2026-05-08 08:56 689K
20260508T06Z_MSC_RDPS_SpecificHumidity_IsbL-1015_RLatLon0.09_PT052H.grib2 2026-05-08 08:56 682K
20260508T06Z_MSC_RDPS_SpecificHumidity_Sfc_RLatLon0.09_PT052H.grib2 2026-05-08 08:56 304K
20260508T06Z_MSC_RDPS_StormRelativeHelicity_EtaL-10000_RLatLon0.09_PT052H.grib2 2026-05-08 08:56 1.1M
20260508T06Z_MSC_RDPS_StormSeverityIndex_EtaL-10000_RLatLon0.09_PT052H.grib2 2026-05-08 08:56 1.2M
20260508T06Z_MSC_RDPS_Thickness_IsbL-0850to0700_RLatLon0.09_PT052H.grib2 2026-05-08 08:56 249K
20260508T06Z_MSC_RDPS_Thickness_IsbL-1000to0500_RLatLon0.09_PT052H.grib2 2026-05-08 08:56 195K
20260508T06Z_MSC_RDPS_Thickness_IsbL-1000to0850_RLatLon0.09_PT052H.grib2 2026-05-08 08:56 262K
20260508T06Z_MSC_RDPS_TotalCloudCover_Sfc_RLatLon0.09_PT052H.grib2 2026-05-08 08:56 679K
20260508T06Z_MSC_RDPS_TotalTotalsIndex_Sfc_RLatLon0.09_PT052H.grib2 2026-05-08 08:56 2.5M
20260508T06Z_MSC_RDPS_UVIndex-ClearSky_Sfc_RLatLon0.09_PT052H.grib2 2026-05-08 08:56 102K
20260508T06Z_MSC_RDPS_UVIndex_Sfc_RLatLon0.09_PT052H.grib2 2026-05-08 08:56 225K
20260508T06Z_MSC_RDPS_UpwardLongwaveRadiationFlux_NTAtm_RLatLon0.09_PT052H.grib2 2026-05-08 08:56 487K
20260508T06Z_MSC_RDPS_UpwardShortwaveRadiationFlux_NTAtm_RLatLon0.09_PT052H.grib2 2026-05-08 08:56 214K
20260508T06Z_MSC_RDPS_VerticalVelocity_IsbL-0250_RLatLon0.09_PT052H.grib2 2026-05-08 08:56 571K
20260508T06Z_MSC_RDPS_VerticalVelocity_IsbL-0500_RLatLon0.09_PT052H.grib2 2026-05-08 08:56 538K
20260508T06Z_MSC_RDPS_VerticalVelocity_IsbL-0700_RLatLon0.09_PT052H.grib2 2026-05-08 08:56 592K
20260508T06Z_MSC_RDPS_VerticalVelocity_IsbL-0850_RLatLon0.09_PT052H.grib2 2026-05-08 08:56 717K
20260508T06Z_MSC_RDPS_VerticalWindShear_EtaL-6500_RLatLon0.09_PT052H.grib2 2026-05-08 08:56 1.2M
20260508T06Z_MSC_RDPS_WindChill_Sfc_RLatLon0.09_PT052H.grib2 2026-05-08 08:56 1.2M
20260508T06Z_MSC_RDPS_WindDir_AGL-10m_RLatLon0.09_PT052H.grib2 2026-05-08 08:56 1.0M
20260508T06Z_MSC_RDPS_WindDir_AGL-120m_RLatLon0.09_PT052H.grib2 2026-05-08 08:56 609K
20260508T06Z_MSC_RDPS_WindDir_AGL-40m_RLatLon0.09_PT052H.grib2 2026-05-08 08:56 642K
20260508T06Z_MSC_RDPS_WindDir_AGL-80m_RLatLon0.09_PT052H.grib2 2026-05-08 08:56 622K
20260508T06Z_MSC_RDPS_WindDir_IsbL-0001_RLatLon0.09_PT052H.grib2 2026-05-08 08:56 286K
20260508T06Z_MSC_RDPS_WindDir_IsbL-0005_RLatLon0.09_PT052H.grib2 2026-05-08 08:56 370K
20260508T06Z_MSC_RDPS_WindDir_IsbL-0010_RLatLon0.09_PT052H.grib2 2026-05-08 08:56 387K
20260508T06Z_MSC_RDPS_WindDir_IsbL-0020_RLatLon0.09_PT052H.grib2 2026-05-08 08:56 433K
20260508T06Z_MSC_RDPS_WindDir_IsbL-0030_RLatLon0.09_PT052H.grib2 2026-05-08 08:56 424K
20260508T06Z_MSC_RDPS_WindDir_IsbL-0050_RLatLon0.09_PT052H.grib2 2026-05-08 08:56 438K
20260508T06Z_MSC_RDPS_WindDir_IsbL-0100_RLatLon0.09_PT052H.grib2 2026-05-08 08:56 418K
20260508T06Z_MSC_RDPS_WindDir_IsbL-0150_RLatLon0.09_PT052H.grib2 2026-05-08 08:56 416K
20260508T06Z_MSC_RDPS_WindDir_IsbL-0175_RLatLon0.09_PT052H.grib2 2026-05-08 08:56 436K
20260508T06Z_MSC_RDPS_WindDir_IsbL-0200_RLatLon0.09_PT052H.grib2 2026-05-08 08:56 455K
20260508T06Z_MSC_RDPS_WindDir_IsbL-0225_RLatLon0.09_PT052H.grib2 2026-05-08 08:56 464K
20260508T06Z_MSC_RDPS_WindDir_IsbL-0250_RLatLon0.09_PT052H.grib2 2026-05-08 08:56 466K
20260508T06Z_MSC_RDPS_WindDir_IsbL-0275_RLatLon0.09_PT052H.grib2 2026-05-08 08:56 486K
20260508T06Z_MSC_RDPS_WindDir_IsbL-0300_RLatLon0.09_PT052H.grib2 2026-05-08 08:56 480K
20260508T06Z_MSC_RDPS_WindDir_IsbL-0350_RLatLon0.09_PT052H.grib2 2026-05-08 08:56 502K
20260508T06Z_MSC_RDPS_WindDir_IsbL-0400_RLatLon0.09_PT052H.grib2 2026-05-08 08:56 529K
20260508T06Z_MSC_RDPS_WindDir_IsbL-0450_RLatLon0.09_PT052H.grib2 2026-05-08 08:56 549K
20260508T06Z_MSC_RDPS_WindDir_IsbL-0500_RLatLon0.09_PT052H.grib2 2026-05-08 08:56 564K
20260508T06Z_MSC_RDPS_WindDir_IsbL-0550_RLatLon0.09_PT052H.grib2 2026-05-08 08:56 576K
20260508T06Z_MSC_RDPS_WindDir_IsbL-0600_RLatLon0.09_PT052H.grib2 2026-05-08 08:56 596K
20260508T06Z_MSC_RDPS_WindDir_IsbL-0650_RLatLon0.09_PT052H.grib2 2026-05-08 08:56 630K
20260508T06Z_MSC_RDPS_WindDir_IsbL-0700_RLatLon0.09_PT052H.grib2 2026-05-08 08:56 665K
20260508T06Z_MSC_RDPS_WindDir_IsbL-0750_RLatLon0.09_PT052H.grib2 2026-05-08 08:56 717K
20260508T06Z_MSC_RDPS_WindDir_IsbL-0800_RLatLon0.09_PT052H.grib2 2026-05-08 08:56 790K
20260508T06Z_MSC_RDPS_WindDir_IsbL-0850_RLatLon0.09_PT052H.grib2 2026-05-08 08:56 859K
20260508T06Z_MSC_RDPS_WindDir_IsbL-0875_RLatLon0.09_PT052H.grib2 2026-05-08 08:56 885K
20260508T06Z_MSC_RDPS_WindDir_IsbL-0900_RLatLon0.09_PT052H.grib2 2026-05-08 08:56 905K
20260508T06Z_MSC_RDPS_WindDir_IsbL-0925_RLatLon0.09_PT052H.grib2 2026-05-08 08:56 915K
20260508T06Z_MSC_RDPS_WindDir_IsbL-0950_RLatLon0.09_PT052H.grib2 2026-05-08 08:56 918K
20260508T06Z_MSC_RDPS_WindDir_IsbL-0970_RLatLon0.09_PT052H.grib2 2026-05-08 08:56 923K
20260508T06Z_MSC_RDPS_WindDir_IsbL-0985_RLatLon0.09_PT052H.grib2 2026-05-08 08:56 935K
20260508T06Z_MSC_RDPS_WindDir_IsbL-1000_RLatLon0.09_PT052H.grib2 2026-05-08 08:56 953K
20260508T06Z_MSC_RDPS_WindDir_IsbL-1015_RLatLon0.09_PT052H.grib2 2026-05-08 08:56 971K
20260508T06Z_MSC_RDPS_WindGust-Max_AGL-10m_RLatLon0.09_PT052H.grib2 2026-05-08 08:56 1.0M
20260508T06Z_MSC_RDPS_WindGust-Min_AGL-10m_RLatLon0.09_PT052H.grib2 2026-05-08 08:56 1.0M
20260508T06Z_MSC_RDPS_WindGust_AGL-10m_RLatLon0.09_PT052H.grib2 2026-05-08 08:56 1.0M
20260508T06Z_MSC_RDPS_WindSpeed_AGL-10m_RLatLon0.09_PT052H.grib2 2026-05-08 08:56 851K
20260508T06Z_MSC_RDPS_WindSpeed_AGL-120m_RLatLon0.09_PT052H.grib2 2026-05-08 08:56 549K
20260508T06Z_MSC_RDPS_WindSpeed_AGL-40m_RLatLon0.09_PT052H.grib2 2026-05-08 08:56 551K
20260508T06Z_MSC_RDPS_WindSpeed_AGL-80m_RLatLon0.09_PT052H.grib2 2026-05-08 08:56 549K
20260508T06Z_MSC_RDPS_WindSpeed_IsbL-0001_RLatLon0.09_PT052H.grib2 2026-05-08 08:56 252K
20260508T06Z_MSC_RDPS_WindSpeed_IsbL-0005_RLatLon0.09_PT052H.grib2 2026-05-08 08:56 385K
20260508T06Z_MSC_RDPS_WindSpeed_IsbL-0010_RLatLon0.09_PT052H.grib2 2026-05-08 08:56 397K
20260508T06Z_MSC_RDPS_WindSpeed_IsbL-0020_RLatLon0.09_PT052H.grib2 2026-05-08 08:56 325K
20260508T06Z_MSC_RDPS_WindSpeed_IsbL-0030_RLatLon0.09_PT052H.grib2 2026-05-08 08:56 321K
20260508T06Z_MSC_RDPS_WindSpeed_IsbL-0050_RLatLon0.09_PT052H.grib2 2026-05-08 08:56 346K
20260508T06Z_MSC_RDPS_WindSpeed_IsbL-0100_RLatLon0.09_PT052H.grib2 2026-05-08 08:56 476K
20260508T06Z_MSC_RDPS_WindSpeed_IsbL-0150_RLatLon0.09_PT052H.grib2 2026-05-08 08:56 374K
20260508T06Z_MSC_RDPS_WindSpeed_IsbL-0175_RLatLon0.09_PT052H.grib2 2026-05-08 08:56 399K
20260508T06Z_MSC_RDPS_WindSpeed_IsbL-0200_RLatLon0.09_PT052H.grib2 2026-05-08 08:56 434K
20260508T06Z_MSC_RDPS_WindSpeed_IsbL-0225_RLatLon0.09_PT052H.grib2 2026-05-08 08:56 440K
20260508T06Z_MSC_RDPS_WindSpeed_IsbL-0250_RLatLon0.09_PT052H.grib2 2026-05-08 08:56 446K
20260508T06Z_MSC_RDPS_WindSpeed_IsbL-0275_RLatLon0.09_PT052H.grib2 2026-05-08 08:56 466K
20260508T06Z_MSC_RDPS_WindSpeed_IsbL-0300_RLatLon0.09_PT052H.grib2 2026-05-08 08:56 464K
20260508T06Z_MSC_RDPS_WindSpeed_IsbL-0350_RLatLon0.09_PT052H.grib2 2026-05-08 08:56 472K
20260508T06Z_MSC_RDPS_WindSpeed_IsbL-0400_RLatLon0.09_PT052H.grib2 2026-05-08 08:56 476K
20260508T06Z_MSC_RDPS_WindSpeed_IsbL-0450_RLatLon0.09_PT052H.grib2 2026-05-08 08:56 462K
20260508T06Z_MSC_RDPS_WindSpeed_IsbL-0500_RLatLon0.09_PT052H.grib2 2026-05-08 08:56 464K
20260508T06Z_MSC_RDPS_WindSpeed_IsbL-0550_RLatLon0.09_PT052H.grib2 2026-05-08 08:56 581K
20260508T06Z_MSC_RDPS_WindSpeed_IsbL-0600_RLatLon0.09_PT052H.grib2 2026-05-08 08:56 590K
20260508T06Z_MSC_RDPS_WindSpeed_IsbL-0650_RLatLon0.09_PT052H.grib2 2026-05-08 08:56 609K
20260508T06Z_MSC_RDPS_WindSpeed_IsbL-0700_RLatLon0.09_PT052H.grib2 2026-05-08 08:56 633K
20260508T06Z_MSC_RDPS_WindSpeed_IsbL-0750_RLatLon0.09_PT052H.grib2 2026-05-08 08:56 711K
20260508T06Z_MSC_RDPS_WindSpeed_IsbL-0800_RLatLon0.09_PT052H.grib2 2026-05-08 08:56 764K
20260508T06Z_MSC_RDPS_WindSpeed_IsbL-0850_RLatLon0.09_PT052H.grib2 2026-05-08 08:56 815K
20260508T06Z_MSC_RDPS_WindSpeed_IsbL-0875_RLatLon0.09_PT052H.grib2 2026-05-08 08:56 837K
20260508T06Z_MSC_RDPS_WindSpeed_IsbL-0900_RLatLon0.09_PT052H.grib2 2026-05-08 08:56 854K
20260508T06Z_MSC_RDPS_WindSpeed_IsbL-0925_RLatLon0.09_PT052H.grib2 2026-05-08 08:56 865K
20260508T06Z_MSC_RDPS_WindSpeed_IsbL-0950_RLatLon0.09_PT052H.grib2 2026-05-08 08:56 869K
20260508T06Z_MSC_RDPS_WindSpeed_IsbL-0970_RLatLon0.09_PT052H.grib2 2026-05-08 08:56 866K
20260508T06Z_MSC_RDPS_WindSpeed_IsbL-0985_RLatLon0.09_PT052H.grib2 2026-05-08 08:56 863K
20260508T06Z_MSC_RDPS_WindSpeed_IsbL-1000_RLatLon0.09_PT052H.grib2 2026-05-08 08:56 858K
20260508T06Z_MSC_RDPS_WindSpeed_IsbL-1015_RLatLon0.09_PT052H.grib2 2026-05-08 08:56 851K
20260508T06Z_MSC_RDPS_WindU_AGL-10m_RLatLon0.09_PT052H.grib2 2026-05-08 08:56 437K
20260508T06Z_MSC_RDPS_WindU_AGL-120m_RLatLon0.09_PT052H.grib2 2026-05-08 08:56 542K
20260508T06Z_MSC_RDPS_WindU_AGL-40m_RLatLon0.09_PT052H.grib2 2026-05-08 08:56 545K
20260508T06Z_MSC_RDPS_WindU_AGL-80m_RLatLon0.09_PT052H.grib2 2026-05-08 08:56 544K
20260508T06Z_MSC_RDPS_WindU_IsbL-0001_RLatLon0.09_PT052H.grib2 2026-05-08 08:56 294K
20260508T06Z_MSC_RDPS_WindU_IsbL-0005_RLatLon0.09_PT052H.grib2 2026-05-08 08:56 286K
20260508T06Z_MSC_RDPS_WindU_IsbL-0010_RLatLon0.09_PT052H.grib2 2026-05-08 08:56 296K
20260508T06Z_MSC_RDPS_WindU_IsbL-0020_RLatLon0.09_PT052H.grib2 2026-05-08 08:56 354K
20260508T06Z_MSC_RDPS_WindU_IsbL-0030_RLatLon0.09_PT052H.grib2 2026-05-08 08:56 312K
20260508T06Z_MSC_RDPS_WindU_IsbL-0050_RLatLon0.09_PT052H.grib2 2026-05-08 08:56 340K
20260508T06Z_MSC_RDPS_WindU_IsbL-0100_RLatLon0.09_PT052H.grib2 2026-05-08 08:56 431K
20260508T06Z_MSC_RDPS_WindU_IsbL-0150_RLatLon0.09_PT052H.grib2 2026-05-08 08:56 391K
20260508T06Z_MSC_RDPS_WindU_IsbL-0175_RLatLon0.09_PT052H.grib2 2026-05-08 08:56 413K
20260508T06Z_MSC_RDPS_WindU_IsbL-0200_RLatLon0.09_PT052H.grib2 2026-05-08 08:56 427K
20260508T06Z_MSC_RDPS_WindU_IsbL-0225_RLatLon0.09_PT052H.grib2 2026-05-08 08:56 433K
20260508T06Z_MSC_RDPS_WindU_IsbL-0250_RLatLon0.09_PT052H.grib2 2026-05-08 08:56 337K
20260508T06Z_MSC_RDPS_WindU_IsbL-0275_RLatLon0.09_PT052H.grib2 2026-05-08 08:56 353K
20260508T06Z_MSC_RDPS_WindU_IsbL-0300_RLatLon0.09_PT052H.grib2 2026-05-08 08:56 449K
20260508T06Z_MSC_RDPS_WindU_IsbL-0350_RLatLon0.09_PT052H.grib2 2026-05-08 08:56 458K
20260508T06Z_MSC_RDPS_WindU_IsbL-0400_RLatLon0.09_PT052H.grib2 2026-05-08 08:56 464K
20260508T06Z_MSC_RDPS_WindU_IsbL-0450_RLatLon0.09_PT052H.grib2 2026-05-08 08:56 467K
20260508T06Z_MSC_RDPS_WindU_IsbL-0500_RLatLon0.09_PT052H.grib2 2026-05-08 08:56 470K
20260508T06Z_MSC_RDPS_WindU_IsbL-0550_RLatLon0.09_PT052H.grib2 2026-05-08 08:56 453K
20260508T06Z_MSC_RDPS_WindU_IsbL-0600_RLatLon0.09_PT052H.grib2 2026-05-08 08:56 461K
20260508T06Z_MSC_RDPS_WindU_IsbL-0650_RLatLon0.09_PT052H.grib2 2026-05-08 08:56 479K
20260508T06Z_MSC_RDPS_WindU_IsbL-0700_RLatLon0.09_PT052H.grib2 2026-05-08 08:56 501K
20260508T06Z_MSC_RDPS_WindU_IsbL-0750_RLatLon0.09_PT052H.grib2 2026-05-08 08:56 532K
20260508T06Z_MSC_RDPS_WindU_IsbL-0800_RLatLon0.09_PT052H.grib2 2026-05-08 08:56 578K
20260508T06Z_MSC_RDPS_WindU_IsbL-0850_RLatLon0.09_PT052H.grib2 2026-05-08 08:56 764K
20260508T06Z_MSC_RDPS_WindU_IsbL-0875_RLatLon0.09_PT052H.grib2 2026-05-08 08:56 783K
20260508T06Z_MSC_RDPS_WindU_IsbL-0900_RLatLon0.09_PT052H.grib2 2026-05-08 08:56 659K
20260508T06Z_MSC_RDPS_WindU_IsbL-0925_RLatLon0.09_PT052H.grib2 2026-05-08 08:56 805K
20260508T06Z_MSC_RDPS_WindU_IsbL-0950_RLatLon0.09_PT052H.grib2 2026-05-08 08:56 806K
20260508T06Z_MSC_RDPS_WindU_IsbL-0970_RLatLon0.09_PT052H.grib2 2026-05-08 08:56 800K
20260508T06Z_MSC_RDPS_WindU_IsbL-0985_RLatLon0.09_PT052H.grib2 2026-05-08 08:56 796K
20260508T06Z_MSC_RDPS_WindU_IsbL-1000_RLatLon0.09_PT052H.grib2 2026-05-08 08:56 838K
20260508T06Z_MSC_RDPS_WindU_IsbL-1015_RLatLon0.09_PT052H.grib2 2026-05-08 08:56 833K
20260508T06Z_MSC_RDPS_WindV_AGL-10m_RLatLon0.09_PT052H.grib2 2026-05-08 08:56 436K
20260508T06Z_MSC_RDPS_WindV_AGL-120m_RLatLon0.09_PT052H.grib2 2026-05-08 08:56 542K
20260508T06Z_MSC_RDPS_WindV_AGL-40m_RLatLon0.09_PT052H.grib2 2026-05-08 08:56 545K
20260508T06Z_MSC_RDPS_WindV_AGL-80m_RLatLon0.09_PT052H.grib2 2026-05-08 08:56 543K
20260508T06Z_MSC_RDPS_WindV_IsbL-0001_RLatLon0.09_PT052H.grib2 2026-05-08 08:56 246K
20260508T06Z_MSC_RDPS_WindV_IsbL-0005_RLatLon0.09_PT052H.grib2 2026-05-08 08:56 286K
20260508T06Z_MSC_RDPS_WindV_IsbL-0010_RLatLon0.09_PT052H.grib2 2026-05-08 08:56 297K
20260508T06Z_MSC_RDPS_WindV_IsbL-0020_RLatLon0.09_PT052H.grib2 2026-05-08 08:56 315K
20260508T06Z_MSC_RDPS_WindV_IsbL-0030_RLatLon0.09_PT052H.grib2 2026-05-08 08:56 312K
20260508T06Z_MSC_RDPS_WindV_IsbL-0050_RLatLon0.09_PT052H.grib2 2026-05-08 08:56 340K
20260508T06Z_MSC_RDPS_WindV_IsbL-0100_RLatLon0.09_PT052H.grib2 2026-05-08 08:56 428K
20260508T06Z_MSC_RDPS_WindV_IsbL-0150_RLatLon0.09_PT052H.grib2 2026-05-08 08:56 388K
20260508T06Z_MSC_RDPS_WindV_IsbL-0175_RLatLon0.09_PT052H.grib2 2026-05-08 08:56 412K
20260508T06Z_MSC_RDPS_WindV_IsbL-0200_RLatLon0.09_PT052H.grib2 2026-05-08 08:56 329K
20260508T06Z_MSC_RDPS_WindV_IsbL-0225_RLatLon0.09_PT052H.grib2 2026-05-08 08:56 333K
20260508T06Z_MSC_RDPS_WindV_IsbL-0250_RLatLon0.09_PT052H.grib2 2026-05-08 08:56 362K
20260508T06Z_MSC_RDPS_WindV_IsbL-0275_RLatLon0.09_PT052H.grib2 2026-05-08 08:56 377K
20260508T06Z_MSC_RDPS_WindV_IsbL-0300_RLatLon0.09_PT052H.grib2 2026-05-08 08:56 374K
20260508T06Z_MSC_RDPS_WindV_IsbL-0350_RLatLon0.09_PT052H.grib2 2026-05-08 08:56 357K
20260508T06Z_MSC_RDPS_WindV_IsbL-0400_RLatLon0.09_PT052H.grib2 2026-05-08 08:56 360K
20260508T06Z_MSC_RDPS_WindV_IsbL-0450_RLatLon0.09_PT052H.grib2 2026-05-08 08:56 362K
20260508T06Z_MSC_RDPS_WindV_IsbL-0500_RLatLon0.09_PT052H.grib2 2026-05-08 08:56 466K
20260508T06Z_MSC_RDPS_WindV_IsbL-0550_RLatLon0.09_PT052H.grib2 2026-05-08 08:56 466K
20260508T06Z_MSC_RDPS_WindV_IsbL-0600_RLatLon0.09_PT052H.grib2 2026-05-08 08:56 474K
20260508T06Z_MSC_RDPS_WindV_IsbL-0650_RLatLon0.09_PT052H.grib2 2026-05-08 08:56 491K
20260508T06Z_MSC_RDPS_WindV_IsbL-0700_RLatLon0.09_PT052H.grib2 2026-05-08 08:56 496K
20260508T06Z_MSC_RDPS_WindV_IsbL-0750_RLatLon0.09_PT052H.grib2 2026-05-08 08:56 527K
20260508T06Z_MSC_RDPS_WindV_IsbL-0800_RLatLon0.09_PT052H.grib2 2026-05-08 08:56 573K
20260508T06Z_MSC_RDPS_WindV_IsbL-0850_RLatLon0.09_PT052H.grib2 2026-05-08 08:56 624K
20260508T06Z_MSC_RDPS_WindV_IsbL-0875_RLatLon0.09_PT052H.grib2 2026-05-08 08:56 642K
20260508T06Z_MSC_RDPS_WindV_IsbL-0900_RLatLon0.09_PT052H.grib2 2026-05-08 08:56 656K
20260508T06Z_MSC_RDPS_WindV_IsbL-0925_RLatLon0.09_PT052H.grib2 2026-05-08 08:56 663K
20260508T06Z_MSC_RDPS_WindV_IsbL-0950_RLatLon0.09_PT052H.grib2 2026-05-08 08:56 663K
20260508T06Z_MSC_RDPS_WindV_IsbL-0970_RLatLon0.09_PT052H.grib2 2026-05-08 08:56 800K
20260508T06Z_MSC_RDPS_WindV_IsbL-0985_RLatLon0.09_PT052H.grib2 2026-05-08 08:56 796K
20260508T06Z_MSC_RDPS_WindV_IsbL-1000_RLatLon0.09_PT052H.grib2 2026-05-08 08:56 838K
20260508T06Z_MSC_RDPS_WindV_IsbL-1015_RLatLon0.09_PT052H.grib2 2026-05-08 08:56 833K